Weather in Fabrichnyye Vyselki

Russia / Ulyanovsk Oblast     53°14′29″N   47°51′44″E
temp.,
°C
wind,
m/s
gust,
m/s
humid.,
%
clouds,
%
prec.,
mm/h
press.,
hPa
HPBL,
m
7 march, sun
sun701:00−14w119257 0.0 101321
04:00−14w119459 0.0 101320
07:00−12w129694 0.1 101326
10:00−9w249296 0.3 1013253
13:00−6wsw478180 0.0 1012817
16:00−6sw587768 0.0 10101016
19:00−8ssw61387100 0.0 1008770
22:00−6sw81592100 0.3 10051014
8 march, mon
mon801:00−5sw91692100 0.7 10011104
04:00−5sw71689100 0.9 999815
07:00−3wsw91688100 0.3 9981084
10:00−5w6118172 0.4 1002796
13:00−2wsw610721 0.0 10021274
16:00−2sw697842 0.0 10011083
19:00−6sw389163 0.0 1001153
22:00−6wsw4119062 0.1 1002520
9 march, tue
tue901:00−10w5119113 0.0 1004307
04:00−14w37936 0.0 1006135
07:00−16w339611 0.0 100950
10:00−12wnw479234 0.0 1010294
13:00−8wnw458395 0.0 1011771
16:00−8wnw568498 0.1 1012850
19:00−12nw3792100 0.1 1013189
22:00−17nw339593 0.1 101544
10 march, wed
wed1001:00−20wnw239729 0.0 101635
04:00−22wnw239627 0.0 101737
07:00−23wnw23970 0.0 101850
10:00−19nw36916 0.0 1019345
13:00−15nw358293 0.0 1020807
16:00−15nw468396 0.1 1021974
19:00−18nnw3792100 0.1 1023212
22:00−23nw349477 0.1 1025108
11 march, thu
thu1101:00−26nw22960 0.0 102620
04:00−27wnw22960 0.0 102719
07:00−28w22950 0.0 102824
10:00−21w24850 0.0 1029249
13:00−14w46810 0.0 1029494
16:00−12wnw468312 0.0 1029535
19:00−16wnw339035 0.0 103042
22:00−20w229118 0.0 103220